Вернуться в каталог

STARLINK-36771

АктивенСвязьVLEO
NORAD 67928·PAYLOAD·🇺🇸 United States

Запущен Feb 22, 2026 с Vandenberg Space Force Base

Loading…

Ближайшие Пролёты (ближайшие 24 часа)

TLE

СвежийSource: CelesTrak SupGP

Эпоха: Sep 15, 2026, 03:02 UTC

1 67928C 26036AA  26258.12687500 -.00024208  00000+0 -87695-3 0  2584
2 67928  43.0025 255.3717 0001403 269.1344 127.6673 15.27585176    15

Отслеживайте STARLINK-36771 в реальном времени с AllMySat

Download on the App Store